Terug naar catalogus

ATLAS 5 CENTAUR DEB

LostHEO
NORAD 47341·DEBRIS·🇺🇸 United States

Gelanceerd Oct 17, 2018 vanaf Cape Canaveral Space Force Station

Loading…

Volgende Passages (komende 24 uur)

TLE

VerouderdSource: Space-Track

Epoch: Dec 3, 2024, 08:52 UTC

1 47341U 18079EN  24338.37006657 -.00000072  00000-0  00000-0 0  9998
2 47341  11.9847  99.1226 4817952 179.1234 182.1565  1.72260358 24630

Volg ATLAS 5 CENTAUR DEB in realtime met AllMySat

Download on the App Store